This is the latest recevied weather packets stored in our database for station/object KI4MRC. If no packets are shown the sender has not sent any weather packets the latest 10 day(s).
| Time | Temp. | Humidity | Pressure | Rain* | Wind** | Luminosity | Snow |
|---|---|---|---|---|---|---|---|
| 1777681117 | 26.67° C | 74% | 1010.6 hPa | 0 mm | - | 0 W/m² | - |
| 1777680815 | 26.67° C | 73% | 1010.3 hPa | 0 mm | - | 0 W/m² | - |
| 1777680512 | 26.67° C | 73% | 1010.5 hPa | 0 mm | - | 0 W/m² | - |
| 1777680210 | 26.67° C | 72% | 1010.4 hPa | 0 mm | - | 1 W/m² | - |
| 1777679906 | 27.22° C | 73% | 1010.3 hPa | 0 mm | - | 1 W/m² | - |
| 1777679602 | 27.22° C | 72% | 1010.2 hPa | 0 mm | - | 3 W/m² | - |
| 1777679297 | 27.22° C | 71% | 1010.1 hPa | 0 mm | - | 6 W/m² | - |
| 1777678995 | 27.78° C | 71% | 1010.1 hPa | 0 mm | - | 8 W/m² | - |
| 1777678693 | 27.78° C | 70% | 1010.2 hPa | 0 mm | - | 12 W/m² | - |
| 1777678390 | 27.78° C | 70% | 1010.2 hPa | 0 mm | - | 15 W/m² | - |
| 1777678085 | 27.78° C | 69% | 1010.1 hPa | 0 mm | - | 20 W/m² | - |
| 1777677783 | 27.78° C | 67% | 1010 hPa | 0 mm | - | 22 W/m² | - |
| 1777677480 | 27.78° C | 67% | 1010.1 hPa | 0 mm | - | 23 W/m² | - |
| 1777677178 | 27.78° C | 67% | 1010 hPa | 0 mm | - | 25 W/m² | - |
| 1777676876 | 28.33° C | 66% | 1009.9 hPa | 0 mm | - | 25 W/m² | - |
| 1777676575 | 28.33° C | 66% | 1009.8 hPa | 0 mm | - | 26 W/m² | - |
| 1777676272 | 28.33° C | 66% | 1009.9 hPa | 0 mm | - | 25 W/m² | - |
| 1777675970 | 28.89° C | 66% | 1009.9 hPa | 0 mm | - | 27 W/m² | - |
| 1777675665 | 28.89° C | 65% | 1009.7 hPa | 0 mm | - | 29 W/m² | - |
| 1777675363 | 28.89° C | 65% | 1009.9 hPa | 0 mm | - | 33 W/m² | - |
| 1777675059 | 28.89° C | 65% | 1009.9 hPa | 0 mm | - | 36 W/m² | - |
| 1777674756 | 29.44° C | 64% | 1009.7 hPa | 0 mm | - | 44 W/m² | - |
| 1777674452 | 29.44° C | 63% | 1009.9 hPa | 0 mm | - | 57 W/m² | - |
| 1777674150 | 29.44° C | 64% | 1009.7 hPa | 0 mm | - | 59 W/m² | - |
| 1777673846 | 29.44° C | 63% | 1009.7 hPa | 0 mm | - | 65 W/m² | - |
* Rain latest hour (hover to see other rain measurements)
** Current wind speed in m/s (hover to see current wind gust speed)